• MPC Preparation (Info)

  • MPEC 2023-G64 : 2023 GV

    The following Minor Planet Electronic Circular may be linked-to from your own Web pages, but must not otherwise be redistributed electronically.

    A form allowing access to any MPEC is at the bottom of this page.


    Read MPEC 2023-G63 Read MPEC 2023-G65


    M.P.E.C. 2023-G64                                Issued 2023 April 13, 01:05 UT
    
         The Minor Planet Electronic Circulars contain information on unusual
             minor planets, routine data on comets and natural satellites,
             and occasional editorial announcements.  They are published
        on behalf of Division F of the International Astronomical Union by the
              Minor Planet Center, Smithsonian Astrophysical Observatory,
                              Cambridge, MA 02138, U.S.A.
    			  
                 Prepared using the Tamkin Foundation Computer Network
    
                                  MPC@CFA.HARVARD.EDU
                URL https://www.minorplanetcenter.net/    ISSN 1523-6714
    
                                     2023 GV                                 
    
    
    Observations:
         K23G00V 1C2023 04 08.37441 13 59 38.11 +44 33 30.7          19.4 GVEG064703
         K23G00V 1C2023 04 08.37976 13 59 33.56 +44 31 44.7          20.1 GVEG064703
         K23G00V*1C2023 04 12.33829313 23 48.354+23 36 14.04         19.42GVEG064703
         K23G00V 1C2023 04 12.34358613 23 45.755+23 34 40.37         19.57GVEG064703
         K23G00V 1C2023 04 12.34888813 23 43.163+23 33 06.73         19.53GVEG064703
         K23G00V 1C2023 04 12.35419513 23 40.538+23 31 31.80         19.33GVEG064703
         K23G00V  C2023 04 12.38150813 23 26.617+23 23 17.53         19.1 GVEG064H01
         K23G00V  C2023 04 12.38494713 23 24.987+23 22 16.58         19.0 GVEG064H01
         K23G00V mC2023 04 12.38793713 23 24.299+23 21 32.44         19.76GVEG064I52
         K23G00V mC2023 04 12.38810713 23 24.227+23 21 29.70         19.34GVEG064I52
         K23G00V mC2023 04 12.38827913 23 24.104+23 21 26.50         19.29GVEG064I52
         K23G00V mC2023 04 12.38844913 23 24.032+23 21 23.65         19.46GVEG064I52
         K23G00V  C2023 04 12.39524513 23 20.118+23 19 12.88         19.2 GVEG064H01
         K23G00V  C2023 04 12.40266713 23 16.650+23 17 00.73         18.9 GVEG064H01
         K23G00V mC2023 04 12.48286913 22 41.034+22 53 17.41         19.12GVEG064I52
         K23G00V mC2023 04 12.48303913 22 40.962+22 53 14.42         19.68GVEG064I52
         K23G00V mC2023 04 12.48322013 22 40.879+22 53 11.18         19.55GVEG064I52
         K23G00V mC2023 04 12.48338913 22 40.804+22 53 08.23         19.90GVEG064I52
         K23G00V KC2023 04 12.88631813 20 32.90 +20 57 20.3                XEG064958
         K23G00V KC2023 04 12.89668613 20 28.45 +20 54 28.9          19.7 GXEG064958
         K23G00V KC2023 04 12.90139713 20 26.54 +20 53 09.6          19.5 GXEG064958
         K23G00V KC2023 04 12.96864 13 19 52.50 +20 34 09.3          19.5 GVEG064K88
         K23G00V KC2023 04 12.97104 13 19 51.42 +20 33 28.6          19.3 GVEG064K88
         K23G00V KC2023 04 12.97344 13 19 50.45 +20 32 48.4          19.4 GVEG064K88
    
    Observer details:
    703 Catalina Sky Survey.  Observers J. K. Hogan, R. A. Kowalski.  Measurers B.
        Gray, D. Rankin, F. C. Shelly, E. J. Christensen, D. Fay, J. B. Fazekas,
        D. C. Fuls, A. R. Gibbs, A. D. Grauer, H. Groeller, J. K. Hogan, R. A.
        Kowalski, S. M. Larson, G. J. Leonard, R. L. Seaman, A. Serrano, K. W.
        Wierzchos.  0.68-m Schmidt + 10K CCD.
    958 Observatoire de Dax.  Observers P. Dupouy, J. B. de Vanssay.  Measurer P.
        Dupouy.  0.43-m f/2.7 Reflector + CCD.
    H01 Magdalena Ridge Observatory, Socorro.  Observers W. H. Ryan, E. V. Ryan.
        Measurer W. H. Ryan.  2.4-m f/8.9 Ritchey-Chretien + CCD.
    I52 Steward Observatory, Mt. Lemmon Station.  Observer R. A. Kowalski.
        Measurers E. J. Christensen, D. Fay, J. B. Fazekas, D. C. Fuls, A. R.
        Gibbs, A. D. Grauer, H. Groeller, J. K. Hogan, R. A. Kowalski, S. M.
        Larson, G. J. Leonard, D. Rankin, R. L. Seaman, A. Serrano, F. C. Shelly,
        K. W. Wierzchos.  1.0-m prime focus + CCD.
    K88 GINOP-KHK, Piszkesteto.  Observer K. Sarneczky.  0.60-m Schmidt + CCD.
    
    Orbital elements:
    2023 GV                                                  Earth MOID = 0.0314 AU
    Epoch 2023 Feb. 25.0 TT = JDT 2460000.5                 Veres                   
    M  21.97630              (2000.0)            P               Q                  
    n   0.86662388     Peri.   91.59382     -0.51204173     -0.85696142             
    a   1.0895545      Node    29.43990     +0.73308463     -0.47152427             
    e   0.1657686      Incl.    6.84377     +0.44766081     -0.20804325             
    P   1.14           H   25.65          G   0.15           U   7                  
    Residuals in seconds of arc
    230408 703  0.8-  0.5+    230412 I52  0.0   0.2-    230412 I52  0.1+  0.0
    230408 703  0.9+  0.5-    230412 I52  0.2+  0.1+    230412 I52  0.1+  0.1+
    230412 703  0.5-  0.5+    230412 I52  0.4-  0.0     230412 958  0.3+  1.2-
    230412 703  0.5-  0.4+    230412 I52  0.3-  0.2+    230412 958  0.1+  0.3+
    230412 703  0.4-  0.7+    230412 H01  0.1-  0.2-    230412 958  1.7+  0.4-
    230412 703  0.8-  0.2-    230412 H01  0.0   0.1+    230412 K88  0.0   0.1+
    230412 H01  0.1-  0.3-    230412 I52  0.2+  0.0     230412 K88  0.5-  0.0
    230412 H01  0.1-  0.0     230412 I52  0.2+  0.0     230412 K88  0.5+  0.4+
    
    Ephemeris:
    2023 GV                  a,e,i = 1.09, 0.17, 7                   q = 0.9089
    Date    TT    R. A. (2000) Decl.     Delta      r    Elong.  Phase     V
    2023 03 14    23 00 00.1 +59 11 35   0.08401 0.9579    62.4   113.1    24.5
    ...
    2023 03 29    19 36 23.5 +74 03 54   0.04552 0.9932    82.4    95.0    22.3
    ...
    2023 04 06    14 36 46.3 +56 43 10   0.03253 1.0140   113.9    64.4    20.5
    ...
    2023 04 12    13 26 07.7 +25 17 17   0.03358 1.0302   146.3    32.7    19.7
    2023 04 13    13 19 43.5 +20 27 32   0.03484 1.0330   150.8    28.3    19.7
    2023 04 14    13 14 09.3 +15 58 07   0.03636 1.0357   154.7    24.4    19.7
    ...
    2023 04 20    12 52 16.4 -03 40 19   0.04965 1.0522   164.0    15.2    20.1
    ...
    2023 04 28    12 39 46.9 -16 38 51   0.07382 1.0743   155.9    22.5    21.2
    ...
    2023 05 13    12 38 23.9 -25 58 17   0.1284  1.1150   142.6    33.4    22.8
    
    M. P. C. Staff               (C) Copyright 2023 MPC           M.P.E.C. 2023-G64
    


    Read MPEC 2023-G63 Read MPEC 2023-G65


    MPEC number:

    Enter an MPEC number in one of the following forms:

    • 1997-B01 (the full form)
    • J97B01 (the packed version of the full form)
    • B01 (the abbreviated form)